FWI10A LFPO-TFFF

Flight info

Callsign FWI10A
Flight time 8h 18m
Altitude 35000
Route LGL UT176 ROLEN UZ15 DIDAK DCT AKEMO DCT RIVAK/M084F350 UN460 SIVIR DCT PASAS DCT 42N020W/M084F360 39N025W 37N030W/M084F380 33N040W 31N045W 28N050W 24N055W DCT CITRS/N0488F380 DCT UMAMU UMAMU2D
Aircraft A35K/H-SDE2E3GHIJ3J4J5LM1ORWXY/LB1D1

Departure

Time 2026-04-07 10:48
Airport Paris-Orly Airport (LFPO)

Arrival

Time 2026-04-07 19:06
Airport Martinique Aimé Césaire International Airport (TFFF)
Time Latitude Longitude Altitude Speed Heading
2026-04-07 10:34 48.72828 2.37463 301 ft 0 kts
2026-04-07 10:35 48.72811 2.37462 303 ft 4 kts 355°
2026-04-07 10:35 48.72785 2.37470 301 ft 4 kts 328°
2026-04-07 10:36 48.72769 2.37496 301 ft 4 kts 276°
2026-04-07 10:37 48.72771 2.37517 303 ft 0 kts 242°
2026-04-07 10:40 48.72768 2.37508 305 ft 2 kts 242°
2026-04-07 10:40 48.72756 2.37476 305 ft 5 kts 242°
2026-04-07 10:40 48.72735 2.37410 303 ft 9 kts 250°
2026-04-07 10:41 48.72715 2.37304 304 ft 12 kts 254°
2026-04-07 10:41 48.72691 2.37179 305 ft 14 kts 254°
2026-04-07 10:41 48.72664 2.37031 305 ft 15 kts 254°
2026-04-07 10:41 48.72633 2.36867 304 ft 17 kts 254°
2026-04-07 10:42 48.72598 2.36685 301 ft 17 kts 253°
2026-04-07 10:42 48.72591 2.36649 303 ft 3 kts 253°
2026-04-07 10:42 48.72584 2.36629 305 ft 5 kts 238°
2026-04-07 10:42 48.72552 2.36613 304 ft 5 kts 178°
2026-04-07 10:43 48.72510 2.36609 304 ft 7 kts 203°
2026-04-07 10:43 48.72480 2.36538 304 ft 10 kts 249°
2026-04-07 10:43 48.72456 2.36421 303 ft 13 kts 253°
2026-04-07 10:43 48.72433 2.36305 303 ft 7 kts 244°
2026-04-07 10:44 48.72404 2.36252 304 ft 6 kts 257°
2026-04-07 10:44 48.72404 2.36165 303 ft 11 kts 269°
2026-04-07 10:44 48.72384 2.36020 302 ft 16 kts 255°
2026-04-07 10:44 48.72354 2.35852 302 ft 17 kts 254°
2026-04-07 10:45 48.72323 2.35683 302 ft 11 kts 252°
2026-04-07 10:45 48.72264 2.35605 304 ft 12 kts 193°
2026-04-07 10:45 48.72175 2.35620 300 ft 14 kts 166°
2026-04-07 10:45 48.72089 2.35662 304 ft 15 kts 151°
2026-04-07 10:46 48.72025 2.35765 302 ft 16 kts 123°
2026-04-07 10:46 48.71976 2.35889 304 ft 12 kts 121°
2026-04-07 10:46 48.71960 2.35974 301 ft 11 kts 85°
2026-04-07 10:46 48.71972 2.36043 302 ft 0 kts 74°
2026-04-07 10:47 48.71989 2.36128 302 ft 28 kts 74°
2026-04-07 10:47 48.72106 2.36763 302 ft 95 kts 75°
2026-04-07 10:47 48.72338 2.38014 306 ft 150 kts 74°
2026-04-07 10:48 48.72602 2.39401 670 ft 159 kts 75°
2026-04-07 10:48 48.72863 2.40746 1395 ft 152 kts 78°
2026-04-07 10:48 48.73150 2.42328 2018 ft 157 kts 79°
2026-04-07 10:48 48.73436 2.43938 2496 ft 163 kts 79°
2026-04-07 10:49 48.73743 2.45614 2884 ft 169 kts 77°
2026-04-07 10:49 48.73970 2.47390 3315 ft 170 kts 87°
2026-04-07 10:49 48.74065 2.49228 3585 ft 186 kts 90°
2026-04-07 10:49 48.74140 2.51268 3802 ft 203 kts 88°
2026-04-07 10:50 48.74226 2.53479 4009 ft 221 kts 88°
2026-04-07 10:50 48.74204 2.55911 4210 ft 240 kts 102°
2026-04-07 10:50 48.73420 2.58179 4474 ft 253 kts 138°
2026-04-07 10:50 48.71843 2.59354 4894 ft 260 kts 173°
2026-04-07 10:51 48.70064 2.58941 5376 ft 265 kts 207°
2026-04-07 10:51 48.68733 2.57043 5962 ft 268 kts 241°
2026-04-07 10:51 48.68218 2.54331 6555 ft 272 kts 262°
2026-04-07 10:51 48.67920 2.51493 7130 ft 275 kts 258°
2026-04-07 10:52 48.67563 2.48641 7714 ft 278 kts 258°
2026-04-07 10:52 48.67202 2.45745 8316 ft 281 kts 258°
2026-04-07 10:52 48.66865 2.43014 8909 ft 283 kts 258°
2026-04-07 10:52 48.66465 2.40243 9474 ft 286 kts 251°
2026-04-07 10:53 48.65755 2.37336 10124 ft 288 kts 247°
2026-04-07 10:53 48.64978 2.34497 10564 ft 298 kts 246°
2026-04-07 10:53 48.64175 2.31577 10834 ft 312 kts 246°
2026-04-07 10:53 48.63344 2.28463 11095 ft 327 kts 249°
2026-04-07 10:54 48.62895 2.25211 11314 ft 343 kts 267°
2026-04-07 10:54 48.63098 2.21547 11574 ft 357 kts 277°
2026-04-07 10:54 48.63500 2.17777 11850 ft 368 kts 278°
2026-04-07 10:54 48.63914 2.13914 12277 ft 374 kts 277°
2026-04-07 10:55 48.64309 2.09994 12665 ft 381 kts 277°
2026-04-07 10:55 48.64703 2.06020 13192 ft 384 kts 277°
2026-04-07 10:55 48.65104 2.02002 13634 ft 388 kts 276°
2026-04-07 10:55 48.65508 1.97947 14146 ft 390 kts 277°
2026-04-07 10:56 48.65913 1.93890 14654 ft 391 kts 276°
2026-04-07 10:56 48.66319 1.89807 15160 ft 392 kts 276°
2026-04-07 10:56 48.66724 1.85720 15626 ft 394 kts 276°
2026-04-07 10:56 48.67129 1.81618 16119 ft 395 kts 276°
2026-04-07 10:57 48.67534 1.77504 16624 ft 396 kts 276°
2026-04-07 10:57 48.67939 1.73370 17099 ft 398 kts 276°
2026-04-07 10:57 48.68346 1.69207 17532 ft 401 kts 276°
2026-04-07 10:57 48.68753 1.65027 18004 ft 403 kts 276°
2026-04-07 10:58 48.69160 1.60819 18464 ft 405 kts 276°
2026-04-07 10:58 48.69569 1.56585 18875 ft 407 kts 276°
2026-04-07 10:58 48.69978 1.52328 19242 ft 410 kts 276°
2026-04-07 10:58 48.70375 1.48192 19622 ft 412 kts 275°
2026-04-07 10:59 48.70785 1.43890 19998 ft 414 kts 275°
2026-04-07 10:59 48.71196 1.39564 20397 ft 417 kts 275°
2026-04-07 10:59 48.71603 1.35259 20779 ft 419 kts 275°
2026-04-07 10:59 48.72016 1.30870 21177 ft 421 kts 275°
2026-04-07 11:00 48.72429 1.26467 21553 ft 424 kts 275°
2026-04-07 11:00 48.72843 1.22038 21936 ft 426 kts 275°
2026-04-07 11:00 48.73258 1.17574 22318 ft 429 kts 274°
2026-04-07 11:00 48.73673 1.13091 22700 ft 431 kts 274°
2026-04-07 11:01 48.74089 1.08592 23097 ft 433 kts 274°
2026-04-07 11:01 48.74505 1.04058 23464 ft 436 kts 274°
2026-04-07 11:01 48.74923 0.99489 23816 ft 438 kts 274°
2026-04-07 11:01 48.75339 0.94913 24139 ft 440 kts 274°
2026-04-07 11:02 48.75758 0.90295 24454 ft 443 kts 274°
2026-04-07 11:02 48.76175 0.85664 24778 ft 445 kts 274°
2026-04-07 11:02 48.76593 0.81004 25116 ft 446 kts 274°
2026-04-07 11:02 48.77010 0.76338 25446 ft 448 kts 274°
2026-04-07 11:03 48.77429 0.71634 25766 ft 451 kts 274°
2026-04-07 11:03 48.77847 0.66917 26096 ft 453 kts 274°
2026-04-07 11:03 48.78138 0.62217 26398 ft 453 kts 268°
2026-04-07 11:03 48.77971 0.57467 26707 ft 450 kts 258°
2026-04-07 11:04 48.77263 0.52866 27047 ft 448 kts 248°
2026-04-07 11:04 48.76041 0.48540 27359 ft 446 kts 238°
2026-04-07 11:04 48.74406 0.44558 27707 ft 445 kts 232°
2026-04-07 11:04 48.72518 0.40834 28006 ft 448 kts 229°
2026-04-07 11:05 48.70483 0.37222 28271 ft 452 kts 227°
2026-04-07 11:05 48.68392 0.33661 28583 ft 454 kts 227°
2026-04-07 11:05 48.66282 0.30087 28963 ft 455 kts 227°
2026-04-07 11:05 48.64174 0.26482 29290 ft 458 kts 228°
2026-04-07 11:06 48.62076 0.22849 29601 ft 460 kts 228°
2026-04-07 11:06 48.59983 0.19189 29980 ft 461 kts 228°
2026-04-07 11:06 48.57792 0.15639 30215 ft 464 kts 223°
2026-04-07 11:06 48.55395 0.12359 30452 ft 465 kts 220°
2026-04-07 11:07 48.52948 0.09152 30730 ft 466 kts 220°
2026-04-07 11:07 48.50468 0.05972 30953 ft 469 kts 219°
2026-04-07 11:07 48.47964 0.02795 31232 ft 470 kts 219°
2026-04-07 11:07 48.45459 -0.00370 31500 ft 471 kts 219°
2026-04-07 11:08 48.42939 -0.03551 31761 ft 472 kts 220°
2026-04-07 11:08 48.40433 -0.06720 32213 ft 469 kts 220°
2026-04-07 11:08 48.37937 -0.09879 32485 ft 470 kts 220°
2026-04-07 11:08 48.35442 -0.13037 32822 ft 468 kts 220°
2026-04-07 11:09 48.32954 -0.16185 33219 ft 466 kts 220°
2026-04-07 11:09 48.30499 -0.19286 33438 ft 468 kts 220°
2026-04-07 11:09 48.28065 -0.22494 33836 ft 465 kts 224°
2026-04-07 11:09 48.25877 -0.26069 34143 ft 465 kts 231°
2026-04-07 11:10 48.24013 -0.30062 34335 ft 467 kts 237°
2026-04-07 11:10 48.22319 -0.34208 34657 ft 465 kts 238°
2026-04-07 11:10 48.20679 -0.38399 34806 ft 468 kts 238°
2026-04-07 11:10 48.19052 -0.42634 35027 ft 468 kts 239°
2026-04-07 11:11 48.17426 -0.46877 35128 ft 470 kts 239°
2026-04-07 11:11 48.14142 -0.55374 35131 ft 472 kts 238°
2026-04-07 11:12 48.10838 -0.63824 35129 ft 473 kts 238°
2026-04-07 11:12 48.07504 -0.72298 35130 ft 473 kts 238°
2026-04-07 11:13 48.04160 -0.80769 35130 ft 473 kts 238°
2026-04-07 11:13 48.00810 -0.89232 35129 ft 472 kts 238°
2026-04-07 11:14 47.97459 -0.97672 35116 ft 473 kts 238°
2026-04-07 11:14 47.94101 -1.06102 35110 ft 473 kts 238°
2026-04-07 11:15 47.90733 -1.14531 35110 ft 473 kts 238°
2026-04-07 11:15 47.87360 -1.22947 35102 ft 473 kts 237°
2026-04-07 11:16 47.84005 -1.31294 35103 ft 472 kts 237°
2026-04-07 11:16 47.80623 -1.39677 35094 ft 472 kts 237°
2026-04-07 11:17 47.77233 -1.48055 35092 ft 473 kts 237°
2026-04-07 11:17 47.73832 -1.56436 35086 ft 474 kts 237°
2026-04-07 11:18 47.70426 -1.64806 35085 ft 474 kts 237°
2026-04-07 11:18 47.67012 -1.73168 35080 ft 473 kts 237°
2026-04-07 11:19 47.63601 -1.81496 35080 ft 472 kts 237°
2026-04-07 11:19 47.60184 -1.89813 35078 ft 472 kts 237°
2026-04-07 11:20 47.56756 -1.98130 35078 ft 472 kts 237°
2026-04-07 11:20 47.53325 -2.06429 35074 ft 473 kts 237°
2026-04-07 11:21 47.49914 -2.14657 35074 ft 472 kts 236°
2026-04-07 11:21 47.46475 -2.22925 35073 ft 472 kts 236°
2026-04-07 11:22 47.43013 -2.31225 35073 ft 472 kts 236°
2026-04-07 11:22 47.39587 -2.39413 35071 ft 472 kts 236°
2026-04-07 11:23 47.36131 -2.47648 35069 ft 472 kts 236°
2026-04-07 11:23 47.32674 -2.55863 35066 ft 471 kts 236°
2026-04-07 11:24 47.29467 -2.63458 35060 ft 471 kts 236°
2026-04-07 11:24 47.26007 -2.71630 35062 ft 471 kts 236°
2026-04-07 11:25 47.20793 -2.83899 35059 ft 471 kts 236°
2026-04-07 11:25 47.17314 -2.92055 35062 ft 470 kts 235°
2026-04-07 11:26 47.14079 -3.00409 35054 ft 473 kts 244°
2026-04-07 11:26 47.11938 -3.09518 35054 ft 476 kts 250°
2026-04-07 11:27 47.10049 -3.18828 35048 ft 476 kts 250°
2026-04-07 11:27 47.08487 -3.26650 35056 ft 476 kts 250°
2026-04-07 11:28 47.06603 -3.35955 35044 ft 476 kts 249°
2026-04-07 11:28 47.04706 -3.45197 35044 ft 476 kts 249°
2026-04-07 11:29 47.02784 -3.54490 35042 ft 476 kts 249°
2026-04-07 11:29 47.00854 -3.63776 35034 ft 476 kts 249°
2026-04-07 11:30 46.98920 -3.73047 35038 ft 476 kts 249°
2026-04-07 11:30 46.96972 -3.82339 35031 ft 477 kts 249°
2026-04-07 11:31 46.95034 -3.91547 35030 ft 477 kts 249°
2026-04-07 11:31 46.93071 -4.00826 35039 ft 477 kts 249°
2026-04-07 11:32 46.91105 -4.10081 35047 ft 477 kts 248°
2026-04-07 11:32 46.89127 -4.19354 35034 ft 477 kts 248°
2026-04-07 11:33 46.87139 -4.28622 35035 ft 478 kts 248°
2026-04-07 11:33 46.85157 -4.37825 35035 ft 478 kts 248°
2026-04-07 11:34 46.83155 -4.47080 35031 ft 477 kts 248°
2026-04-07 11:34 46.81145 -4.56330 35031 ft 477 kts 248°
2026-04-07 11:35 46.79129 -4.65566 35032 ft 477 kts 248°
2026-04-07 11:35 46.77106 -4.74796 35032 ft 477 kts 248°
2026-04-07 11:36 46.75076 -4.84015 35034 ft 477 kts 248°
2026-04-07 11:36 46.73050 -4.93175 35038 ft 478 kts 247°
2026-04-07 11:37 46.71003 -5.02386 35033 ft 478 kts 247°
2026-04-07 11:37 46.68940 -5.11634 35028 ft 478 kts 247°
2026-04-07 11:38 46.66875 -5.20849 35028 ft 478 kts 247°
2026-04-07 11:38 46.64803 -5.30056 35042 ft 478 kts 247°
2026-04-07 11:39 46.62739 -5.39189 35033 ft 477 kts 247°
2026-04-07 11:39 46.60656 -5.48366 35018 ft 477 kts 247°
2026-04-07 11:40 46.58566 -5.57533 35018 ft 477 kts 246°
2026-04-07 11:40 46.56470 -5.66684 35041 ft 477 kts 247°
2026-04-07 11:41 46.54378 -5.75792 35021 ft 473 kts 246°
2026-04-07 11:41 46.52284 -5.84861 35019 ft 473 kts 246°
2026-04-07 11:42 46.50186 -5.93903 35019 ft 473 kts 246°
2026-04-07 11:42 46.48081 -6.02944 35021 ft 473 kts 246°
2026-04-07 11:43 46.45978 -6.11934 35015 ft 473 kts 246°
2026-04-07 11:43 46.43858 -6.20965 35019 ft 473 kts 246°
2026-04-07 11:44 46.41728 -6.30002 35015 ft 473 kts 246°
2026-04-07 11:44 46.39590 -6.39035 35011 ft 473 kts 246°
2026-04-07 11:45 46.37444 -6.48061 35012 ft 474 kts 246°
2026-04-07 11:45 46.35300 -6.57041 35009 ft 475 kts 246°
2026-04-07 11:46 46.33137 -6.66072 35272 ft 473 kts 246°
2026-04-07 11:46 46.32060 -6.70558 35570 ft 471 kts 246°
2026-04-07 11:46 46.30983 -6.75031 35781 ft 472 kts 246°
2026-04-07 11:47 46.29900 -6.79517 35954 ft 473 kts 246°
2026-04-07 11:47 46.28808 -6.84026 36016 ft 477 kts 246°
2026-04-07 11:47 46.26609 -6.93086 36002 ft 477 kts 246°
2026-04-07 11:48 46.24401 -7.02156 35997 ft 477 kts 246°
2026-04-07 11:48 46.22191 -7.11198 35998 ft 477 kts 246°
2026-04-07 11:49 46.19990 -7.20161 36004 ft 477 kts 246°
2026-04-07 11:49 46.17773 -7.29161 35996 ft 475 kts 246°
2026-04-07 11:50 46.15549 -7.38147 35995 ft 474 kts 246°
2026-04-07 11:50 46.13323 -7.47103 35993 ft 474 kts 246°
2026-04-07 11:51 46.11088 -7.56064 35990 ft 474 kts 245°
2026-04-07 11:51 46.08853 -7.64993 35985 ft 473 kts 245°
2026-04-07 11:52 46.06628 -7.73841 35988 ft 473 kts 245°
2026-04-07 11:52 46.04368 -7.82797 35979 ft 473 kts 245°
2026-04-07 11:53 46.02128 -7.91635 35982 ft 473 kts 245°
2026-04-07 11:53 46.00317 -8.00777 35983 ft 483 kts 256°
2026-04-07 11:54 45.99961 -8.10525 35979 ft 490 kts 264°
2026-04-07 11:54 45.99985 -8.20367 35980 ft 492 kts 265°
2026-04-07 11:55 46.00044 -8.30199 35974 ft 492 kts 264°
2026-04-07 11:55 46.00068 -8.40030 35974 ft 491 kts 264°
2026-04-07 11:56 46.00064 -8.49858 35971 ft 491 kts 264°
2026-04-07 11:56 46.00047 -8.59685 35966 ft 491 kts 264°
2026-04-07 11:57 46.00020 -8.69509 35968 ft 490 kts 264°
2026-04-07 11:57 45.99081 -8.79069 35968 ft 479 kts 249°
2026-04-07 11:58 45.97235 -8.88271 35963 ft 479 kts 247°
2026-04-07 11:58 45.95260 -8.97344 35964 ft 479 kts 246°
2026-04-07 11:59 45.93258 -9.06483 35960 ft 479 kts 246°
2026-04-07 11:59 45.91272 -9.15610 35958 ft 478 kts 246°
2026-04-07 12:00 45.89287 -9.24737 35972 ft 478 kts 246°
2026-04-07 12:00 45.87313 -9.33779 35948 ft 478 kts 246°
2026-04-07 12:01 45.85315 -9.42888 35947 ft 478 kts 246°
2026-04-07 12:01 45.83313 -9.51976 35957 ft 478 kts 246°
2026-04-07 12:02 45.81307 -9.61044 35951 ft 477 kts 246°
2026-04-07 12:02 45.79294 -9.70101 35950 ft 477 kts 246°
2026-04-07 12:03 45.77270 -9.79163 35947 ft 477 kts 246°
2026-04-07 12:03 45.75243 -9.88209 35958 ft 477 kts 245°
2026-04-07 12:04 45.73206 -9.97253 35940 ft 478 kts 245°
2026-04-07 12:04 45.71161 -10.06298 35941 ft 479 kts 245°
2026-04-07 12:05 45.69098 -10.15386 35938 ft 479 kts 245°
2026-04-07 12:05 45.67031 -10.24456 35949 ft 479 kts 245°
2026-04-07 12:06 45.64969 -10.33462 35939 ft 480 kts 245°
2026-04-07 12:06 45.62883 -10.42534 35938 ft 480 kts 245°
2026-04-07 12:07 45.60788 -10.51606 35933 ft 480 kts 245°
2026-04-07 12:07 45.58688 -10.60667 35937 ft 480 kts 245°
2026-04-07 12:08 45.56591 -10.69675 35925 ft 481 kts 245°
2026-04-07 12:08 45.54472 -10.78739 35925 ft 481 kts 244°
2026-04-07 12:09 45.52346 -10.87799 35924 ft 481 kts 244°
2026-04-07 12:09 45.50209 -10.96868 35947 ft 482 kts 244°
2026-04-07 12:10 45.48068 -11.05912 35921 ft 482 kts 244°
2026-04-07 12:10 45.45919 -11.14960 35918 ft 482 kts 244°
2026-04-07 12:11 45.43765 -11.23989 35913 ft 482 kts 244°
2026-04-07 12:11 45.41611 -11.32976 35924 ft 482 kts 244°
2026-04-07 12:12 45.39444 -11.41990 35912 ft 481 kts 244°
2026-04-07 12:12 45.37267 -11.51002 35914 ft 482 kts 244°
2026-04-07 12:13 45.35079 -11.60027 35909 ft 482 kts 244°
2026-04-07 12:13 45.32896 -11.68993 35937 ft 482 kts 245°
2026-04-07 12:14 45.30697 -11.77986 35911 ft 481 kts 245°
2026-04-07 12:14 45.28495 -11.86964 35912 ft 481 kts 245°
2026-04-07 12:15 45.26660 -11.94419 35914 ft 481 kts 244°
2026-04-07 12:15 45.24441 -12.03394 35914 ft 481 kts 244°
2026-04-07 12:16 45.22216 -12.12359 35908 ft 481 kts 244°
2026-04-07 12:16 45.19987 -12.21304 35909 ft 481 kts 244°
2026-04-07 12:17 45.17751 -12.30244 35902 ft 481 kts 244°
2026-04-07 12:17 45.15506 -12.39188 35927 ft 481 kts 245°
2026-04-07 12:18 45.13255 -12.48116 35910 ft 482 kts 245°
2026-04-07 12:18 45.10993 -12.57056 35906 ft 482 kts 245°
2026-04-07 12:19 45.08742 -12.65920 35905 ft 482 kts 245°
2026-04-07 12:19 45.06469 -12.74831 35921 ft 482 kts 245°
2026-04-07 12:20 45.04177 -12.83778 35914 ft 486 kts 245°
2026-04-07 12:20 45.01862 -12.92787 35904 ft 488 kts 245°
2026-04-07 12:21 44.99319 -13.01630 35915 ft 483 kts 238°
2026-04-07 12:21 44.96236 -13.10041 35915 ft 482 kts 238°
2026-04-07 12:22 44.93063 -13.18365 35911 ft 486 kts 237°
2026-04-07 12:22 44.89843 -13.26764 35912 ft 487 kts 237°
2026-04-07 12:23 44.86619 -13.35180 35913 ft 487 kts 237°
2026-04-07 12:23 44.83399 -13.43574 35919 ft 487 kts 238°
2026-04-07 12:24 44.80161 -13.51990 35914 ft 490 kts 238°
2026-04-07 12:24 44.76906 -13.60423 35913 ft 490 kts 238°
2026-04-07 12:25 44.73667 -13.68790 35915 ft 490 kts 238°
2026-04-07 12:25 44.70378 -13.77265 35934 ft 491 kts 238°
2026-04-07 12:26 44.67113 -13.85646 35914 ft 492 kts 238°
2026-04-07 12:26 44.63823 -13.94082 35933 ft 492 kts 238°
2026-04-07 12:27 44.60521 -14.02511 35938 ft 492 kts 237°
2026-04-07 12:27 44.57221 -14.10915 35930 ft 493 kts 237°
2026-04-07 12:28 44.53894 -14.19360 35941 ft 495 kts 237°
2026-04-07 12:29 44.48882 -14.32030 35948 ft 495 kts 239°
2026-04-07 12:29 44.45530 -14.40467 35960 ft 496 kts 239°
2026-04-07 12:30 44.42182 -14.48872 35952 ft 498 kts 239°
2026-04-07 12:30 44.38803 -14.57334 35966 ft 499 kts 239°
2026-04-07 12:31 44.35413 -14.65796 35968 ft 499 kts 239°
2026-04-07 12:31 44.32013 -14.74255 35966 ft 499 kts 240°
2026-04-07 12:32 44.28614 -14.82689 35977 ft 499 kts 241°
2026-04-07 12:32 44.25206 -14.91128 35988 ft 499 kts 240°
2026-04-07 12:33 44.21788 -14.99561 35982 ft 499 kts 240°
2026-04-07 12:33 44.18360 -15.07986 35997 ft 501 kts 242°
2026-04-07 12:34 44.14914 -15.16437 35992 ft 506 kts 242°
2026-04-07 12:34 44.11429 -15.24963 35985 ft 506 kts 242°
2026-04-07 12:35 44.07936 -15.33478 35994 ft 507 kts 241°
2026-04-07 12:35 44.04436 -15.41978 36005 ft 507 kts 242°
2026-04-07 12:36 44.00923 -15.50491 36001 ft 508 kts 241°
2026-04-07 12:36 43.97424 -15.58943 36002 ft 507 kts 242°
2026-04-07 12:37 43.93905 -15.67417 36011 ft 506 kts 243°
2026-04-07 12:37 43.90359 -15.75933 36018 ft 511 kts 242°
2026-04-07 12:38 43.86790 -15.84481 36025 ft 512 kts 243°
2026-04-07 12:38 43.83208 -15.93036 36038 ft 513 kts 242°
2026-04-07 12:39 43.79616 -16.01578 36034 ft 513 kts 242°
2026-04-07 12:39 43.76024 -16.10096 36046 ft 513 kts 242°
2026-04-07 12:40 43.72432 -16.18592 36046 ft 512 kts 244°
2026-04-07 12:40 43.68836 -16.27085 36056 ft 512 kts 243°
2026-04-07 12:41 43.65250 -16.35528 36055 ft 512 kts 244°
2026-04-07 12:41 43.61633 -16.44007 36066 ft 512 kts 244°
2026-04-07 12:42 43.58012 -16.52471 36078 ft 512 kts 243°
2026-04-07 12:42 43.54382 -16.60925 36077 ft 512 kts 243°
2026-04-07 12:43 43.50747 -16.69376 36086 ft 512 kts 243°
2026-04-07 12:43 43.47107 -16.77815 36098 ft 512 kts 243°
2026-04-07 12:44 43.43464 -16.86236 36097 ft 512 kts 243°
2026-04-07 12:44 43.39812 -16.94654 36105 ft 512 kts 243°
2026-04-07 12:45 43.36154 -17.03060 36105 ft 512 kts 243°
2026-04-07 12:45 43.32489 -17.11453 36116 ft 513 kts 244°
2026-04-07 12:46 43.28832 -17.19809 36124 ft 514 kts 244°
2026-04-07 12:46 43.25141 -17.28221 36124 ft 514 kts 244°
2026-04-07 12:47 43.21461 -17.36580 36135 ft 514 kts 244°
2026-04-07 12:47 43.17755 -17.44970 36134 ft 515 kts 245°
2026-04-07 12:48 43.14043 -17.53354 36144 ft 515 kts 245°
2026-04-07 12:48 43.10322 -17.61735 36151 ft 515 kts 245°
2026-04-07 12:49 43.06593 -17.70111 36152 ft 515 kts 245°
2026-04-07 12:49 43.02853 -17.78481 36157 ft 515 kts 245°
2026-04-07 12:50 42.99112 -17.86834 36161 ft 515 kts 245°
2026-04-07 12:50 42.95371 -17.95165 36170 ft 515 kts 245°
2026-04-07 12:51 42.91620 -18.03495 36183 ft 515 kts 245°
2026-04-07 12:51 42.87896 -18.11739 36158 ft 514 kts 246°
2026-04-07 12:52 42.84212 -18.19871 36184 ft 513 kts 246°
2026-04-07 12:52 42.80735 -18.27527 36184 ft 513 kts 246°
2026-04-07 12:53 42.77588 -18.34440 36198 ft 513 kts 246°
2026-04-07 12:53 42.74253 -18.41750 36197 ft 513 kts 246°
2026-04-07 12:54 42.70482 -18.49985 36206 ft 512 kts 248°
2026-04-07 12:54 42.66723 -18.58174 36207 ft 510 kts 248°
2026-04-07 12:55 42.62959 -18.66361 36207 ft 510 kts 248°
2026-04-07 12:55 42.59194 -18.74526 36215 ft 510 kts 247°
2026-04-07 12:56 42.55420 -18.82685 36212 ft 510 kts 247°
2026-04-07 12:56 42.51639 -18.90836 36223 ft 511 kts 247°
2026-04-07 12:57 42.47853 -18.98976 36234 ft 511 kts 247°
2026-04-07 12:57 42.44056 -19.07116 36233 ft 511 kts 247°
2026-04-07 12:58 42.40282 -19.15185 36218 ft 511 kts 247°
2026-04-07 12:58 42.36477 -19.23297 36239 ft 510 kts 247°
2026-04-07 12:59 42.32666 -19.31401 36249 ft 510 kts 247°
2026-04-07 12:59 42.28851 -19.39494 36255 ft 510 kts 247°
2026-04-07 13:00 42.25680 -19.46204 36201 ft 510 kts 247°
2026-04-07 13:00 42.21858 -19.54266 36265 ft 509 kts 247°
2026-04-07 13:01 42.18046 -19.62288 36262 ft 508 kts 247°
2026-04-07 13:01 42.14225 -19.70314 36269 ft 508 kts 247°
2026-04-07 13:02 42.10395 -19.78332 36271 ft 508 kts 247°
2026-04-07 13:02 42.06562 -19.86335 36275 ft 508 kts 248°
2026-04-07 13:03 42.02728 -19.94320 36282 ft 508 kts 248°
2026-04-07 13:03 41.98901 -20.02242 36283 ft 510 kts 246°
2026-04-07 13:04 41.94686 -20.09994 36293 ft 515 kts 243°
2026-04-07 13:04 41.90311 -20.17624 36287 ft 515 kts 243°
2026-04-07 13:05 41.85986 -20.25253 36298 ft 513 kts 243°
2026-04-07 13:05 41.81699 -20.32911 36295 ft 512 kts 244°
2026-04-07 13:06 41.77426 -20.40562 36304 ft 512 kts 244°
2026-04-07 13:06 41.73153 -20.48193 36265 ft 511 kts 244°
2026-04-07 13:07 41.68908 -20.55743 36313 ft 509 kts 243°
2026-04-07 13:07 41.64651 -20.63298 36324 ft 508 kts 243°
2026-04-07 13:08 41.60391 -20.70845 36323 ft 508 kts 243°
2026-04-07 13:08 41.56122 -20.78385 36327 ft 508 kts 243°
2026-04-07 13:09 41.51852 -20.85909 36326 ft 508 kts 243°
2026-04-07 13:09 41.47584 -20.93405 36333 ft 507 kts 243°
2026-04-07 13:10 41.43313 -21.00892 36335 ft 507 kts 243°
2026-04-07 13:10 41.39071 -21.08312 36335 ft 507 kts 243°
2026-04-07 13:11 41.34788 -21.15785 36319 ft 507 kts 243°
2026-04-07 13:11 41.30506 -21.23236 36346 ft 506 kts 243°
2026-04-07 13:12 41.26220 -21.30676 36349 ft 506 kts 243°
2026-04-07 13:12 41.21931 -21.38104 36349 ft 507 kts 243°
2026-04-07 13:13 41.17634 -21.45526 36363 ft 507 kts 243°
2026-04-07 13:13 41.13356 -21.52901 36354 ft 507 kts 242°
2026-04-07 13:14 41.09052 -21.60300 36359 ft 507 kts 242°
2026-04-07 13:14 41.04741 -21.67694 36363 ft 507 kts 242°
2026-04-07 13:15 41.00417 -21.75092 36363 ft 507 kts 242°
2026-04-07 13:15 40.96094 -21.82471 36334 ft 507 kts 242°
2026-04-07 13:16 40.91759 -21.89854 36371 ft 507 kts 242°
2026-04-07 13:16 40.87423 -21.97219 36369 ft 508 kts 242°
2026-04-07 13:17 40.83108 -22.04531 36373 ft 507 kts 242°
2026-04-07 13:17 40.78737 -22.11920 36376 ft 507 kts 241°
2026-04-07 13:18 40.74415 -22.19210 36376 ft 507 kts 241°
2026-04-07 13:18 40.70063 -22.26532 36384 ft 508 kts 241°
2026-04-07 13:19 40.65702 -22.33853 36387 ft 508 kts 241°
2026-04-07 13:19 40.61336 -22.41165 36390 ft 508 kts 241°
2026-04-07 13:20 40.56969 -22.48462 36386 ft 508 kts 241°
2026-04-07 13:20 40.52589 -22.55762 36395 ft 508 kts 241°
2026-04-07 13:21 40.48209 -22.63044 36400 ft 508 kts 240°
2026-04-07 13:21 40.43817 -22.70330 36400 ft 508 kts 240°
2026-04-07 13:22 40.39424 -22.77601 36405 ft 508 kts 240°
2026-04-07 13:22 40.35031 -22.84856 36406 ft 507 kts 240°
2026-04-07 13:23 40.30643 -22.92081 36406 ft 506 kts 240°
2026-04-07 13:23 40.26283 -22.99249 36416 ft 506 kts 240°
2026-04-07 13:24 40.21855 -23.06511 36412 ft 506 kts 240°
2026-04-07 13:24 40.17490 -23.13652 36404 ft 506 kts 240°
2026-04-07 13:25 40.13095 -23.20824 36419 ft 505 kts 240°
2026-04-07 13:25 40.08702 -23.27979 36419 ft 505 kts 240°
2026-04-07 13:26 40.04303 -23.35128 36419 ft 505 kts 240°
2026-04-07 13:26 39.99896 -23.42271 36425 ft 505 kts 239°
2026-04-07 13:27 39.95493 -23.49392 36426 ft 503 kts 239°
2026-04-07 13:27 39.91100 -23.56479 36427 ft 502 kts 239°
2026-04-07 13:28 39.86729 -23.63517 36432 ft 502 kts 239°
2026-04-07 13:28 39.82328 -23.70588 36433 ft 502 kts 239°
2026-04-07 13:29 39.77922 -23.77652 36427 ft 502 kts 239°
2026-04-07 13:29 39.73524 -23.84684 36439 ft 501 kts 239°
2026-04-07 13:30 39.69118 -23.91713 36437 ft 501 kts 238°
2026-04-07 13:30 39.64710 -23.98732 36442 ft 501 kts 238°
2026-04-07 13:31 39.60300 -24.05739 36446 ft 502 kts 238°
2026-04-07 13:31 39.55884 -24.12738 36444 ft 501 kts 238°
2026-04-07 13:32 39.51495 -24.19677 36446 ft 501 kts 238°
2026-04-07 13:32 39.47080 -24.26645 36449 ft 501 kts 238°
2026-04-07 13:33 39.42654 -24.33613 36449 ft 501 kts 238°
2026-04-07 13:33 39.36011 -24.44045 36457 ft 500 kts 237°
2026-04-07 13:34 39.31577 -24.50986 36457 ft 500 kts 237°
2026-04-07 13:34 39.27152 -24.57900 36460 ft 500 kts 237°
2026-04-07 13:35 39.22721 -24.64807 36465 ft 500 kts 237°
2026-04-07 13:35 39.18283 -24.71712 36447 ft 499 kts 237°
2026-04-07 13:36 39.13847 -24.78597 36468 ft 499 kts 236°
2026-04-07 13:36 39.09407 -24.85474 36470 ft 499 kts 236°
2026-04-07 13:37 39.04967 -24.92336 36473 ft 499 kts 236°
2026-04-07 13:37 39.00660 -24.99255 36473 ft 494 kts 243°
2026-04-07 13:38 38.97412 -25.06910 36468 ft 486 kts 250°
2026-04-07 13:38 38.94495 -25.14746 36479 ft 486 kts 251°
2026-04-07 13:39 38.91621 -25.22602 36481 ft 486 kts 250°
2026-04-07 13:39 38.88727 -25.30443 36486 ft 486 kts 250°
2026-04-07 13:40 38.85810 -25.38284 36485 ft 486 kts 250°
2026-04-07 13:40 38.82883 -25.46118 36485 ft 486 kts 250°
2026-04-07 13:41 38.79975 -25.53878 36492 ft 486 kts 250°
2026-04-07 13:41 38.77040 -25.61694 36492 ft 486 kts 250°
2026-04-07 13:42 38.74100 -25.69509 36491 ft 487 kts 249°
2026-04-07 13:42 38.71150 -25.77322 36495 ft 487 kts 249°
2026-04-07 13:43 38.68199 -25.85120 36495 ft 487 kts 249°
2026-04-07 13:43 38.65235 -25.92929 36500 ft 487 kts 249°
2026-04-07 13:44 38.62275 -26.00714 36500 ft 487 kts 249°
2026-04-07 13:44 38.59393 -26.08273 36502 ft 487 kts 249°
2026-04-07 13:45 38.56420 -26.16049 36503 ft 487 kts 249°
2026-04-07 13:45 38.53456 -26.23780 36505 ft 487 kts 249°
2026-04-07 13:46 38.50470 -26.31553 36510 ft 487 kts 248°
2026-04-07 13:46 38.47986 -26.38003 36513 ft 487 kts 248°
2026-04-07 13:47 38.44995 -26.45749 36514 ft 487 kts 248°
2026-04-07 13:47 38.42125 -26.53166 36511 ft 487 kts 248°
2026-04-07 13:48 38.39121 -26.60913 36517 ft 488 kts 247°
2026-04-07 13:48 38.36107 -26.68660 36521 ft 488 kts 247°
2026-04-07 13:49 38.33175 -26.76177 36521 ft 488 kts 247°
2026-04-07 13:49 38.30154 -26.83905 36518 ft 488 kts 247°
2026-04-07 13:50 38.27129 -26.91627 36513 ft 488 kts 247°
2026-04-07 13:50 38.24092 -26.99358 36518 ft 488 kts 247°
2026-04-07 13:51 38.21228 -27.06629 36522 ft 488 kts 247°
2026-04-07 13:51 38.18181 -27.14347 36529 ft 488 kts 247°
2026-04-07 13:52 38.15130 -27.22058 36526 ft 489 kts 246°
2026-04-07 13:52 38.12089 -27.29723 36529 ft 489 kts 246°
2026-04-07 13:53 38.09020 -27.37439 36531 ft 489 kts 246°
2026-04-07 13:53 38.05951 -27.45136 36529 ft 489 kts 246°
2026-04-07 13:54 38.02872 -27.52841 36532 ft 490 kts 246°
2026-04-07 13:54 37.99786 -27.60543 36533 ft 490 kts 246°
2026-04-07 13:55 37.96695 -27.68240 36533 ft 490 kts 246°
2026-04-07 13:55 37.93597 -27.75931 36539 ft 490 kts 246°
2026-04-07 13:56 37.90492 -27.83625 36540 ft 491 kts 246°
2026-04-07 13:56 37.87397 -27.91274 36543 ft 491 kts 246°
2026-04-07 13:57 37.84276 -27.98970 36543 ft 491 kts 246°
2026-04-07 13:57 37.81146 -28.06668 36546 ft 492 kts 246°
2026-04-07 13:58 37.78010 -28.14362 36538 ft 492 kts 246°
2026-04-07 13:58 37.74868 -28.22052 36539 ft 492 kts 246°
2026-04-07 13:59 37.71720 -28.29737 36553 ft 492 kts 246°
2026-04-07 13:59 37.68589 -28.37361 36556 ft 492 kts 246°
2026-04-07 14:00 37.65428 -28.45041 36554 ft 492 kts 246°
2026-04-07 14:00 37.62262 -28.52715 36555 ft 492 kts 245°
2026-04-07 14:01 37.59094 -28.60374 36559 ft 492 kts 245°
2026-04-07 14:01 37.55941 -28.67979 36550 ft 492 kts 245°
2026-04-07 14:02 37.52759 -28.75637 36558 ft 492 kts 245°
2026-04-07 14:02 37.49578 -28.83272 36561 ft 492 kts 245°
2026-04-07 14:03 37.46382 -28.90927 36561 ft 492 kts 245°
2026-04-07 14:03 37.43206 -28.98514 36558 ft 492 kts 245°
2026-04-07 14:04 37.40010 -29.06130 36562 ft 492 kts 245°
2026-04-07 14:04 37.36790 -29.13787 36562 ft 492 kts 245°
2026-04-07 14:05 37.33604 -29.21346 36567 ft 492 kts 245°
2026-04-07 14:05 37.30390 -29.28949 36564 ft 492 kts 245°
2026-04-07 14:06 37.27174 -29.36541 36568 ft 492 kts 245°
2026-04-07 14:06 37.23960 -29.44112 36571 ft 492 kts 245°
2026-04-07 14:07 37.20736 -29.51689 36572 ft 492 kts 245°
2026-04-07 14:07 37.17529 -29.59204 36574 ft 491 kts 245°
2026-04-07 14:08 37.14302 -29.66752 36574 ft 491 kts 245°
2026-04-07 14:08 37.11069 -29.74298 36575 ft 491 kts 245°
2026-04-07 14:09 37.07833 -29.81831 36576 ft 491 kts 245°
2026-04-07 14:09 37.04594 -29.89351 36578 ft 490 kts 245°
2026-04-07 14:10 37.01354 -29.96860 36575 ft 490 kts 245°
2026-04-07 14:10 36.98455 -30.04529 36575 ft 487 kts 250°
2026-04-07 14:11 36.95770 -30.12319 36571 ft 487 kts 251°
2026-04-07 14:11 36.93117 -30.20104 36582 ft 486 kts 251°
2026-04-07 14:12 36.90481 -30.27814 36578 ft 486 kts 251°
2026-04-07 14:12 36.87815 -30.35570 36586 ft 486 kts 251°
2026-04-07 14:13 36.85136 -30.43335 36582 ft 485 kts 251°
2026-04-07 14:13 36.82464 -30.51055 36584 ft 484 kts 251°
2026-04-07 14:14 36.81127 -30.54913 36702 ft 483 kts 251°
2026-04-07 14:14 36.79796 -30.58747 37067 ft 481 kts 251°
2026-04-07 14:14 36.78470 -30.62560 37425 ft 478 kts 251°
2026-04-07 14:14 36.77146 -30.66365 37732 ft 476 kts 251°
2026-04-07 14:15 36.75844 -30.70100 37985 ft 475 kts 251°
2026-04-07 14:15 36.74529 -30.73869 38318 ft 473 kts 251°
2026-04-07 14:15 36.73217 -30.77627 38549 ft 472 kts 251°
2026-04-07 14:15 36.71904 -30.81389 38592 ft 476 kts 251°
2026-04-07 14:16 36.69250 -30.88978 38589 ft 477 kts 251°
2026-04-07 14:16 36.66588 -30.96555 38590 ft 477 kts 251°
2026-04-07 14:17 36.63925 -31.04115 38576 ft 476 kts 251°
2026-04-07 14:17 36.61263 -31.11658 38588 ft 476 kts 251°
2026-04-07 14:18 36.58596 -31.19198 38581 ft 476 kts 251°
2026-04-07 14:18 36.55927 -31.26724 38593 ft 476 kts 251°
2026-04-07 14:19 36.53267 -31.34206 38587 ft 476 kts 251°
2026-04-07 14:19 36.50570 -31.41772 38592 ft 476 kts 251°
2026-04-07 14:20 36.47885 -31.49288 38586 ft 476 kts 251°
2026-04-07 14:20 36.45212 -31.56751 38594 ft 475 kts 251°
2026-04-07 14:21 36.42528 -31.64225 38594 ft 473 kts 251°
2026-04-07 14:21 36.39842 -31.71688 38593 ft 473 kts 251°
2026-04-07 14:22 36.37153 -31.79146 38594 ft 473 kts 251°
2026-04-07 14:22 36.34464 -31.86579 38595 ft 472 kts 251°
2026-04-07 14:23 36.31772 -31.94004 38599 ft 471 kts 251°
2026-04-07 14:23 36.29081 -32.01410 38597 ft 471 kts 251°
2026-04-07 14:24 36.26385 -32.08814 38588 ft 471 kts 250°
2026-04-07 14:24 36.23687 -32.16205 38598 ft 471 kts 250°
2026-04-07 14:25 36.21000 -32.23546 38600 ft 470 kts 250°
2026-04-07 14:25 36.18299 -32.30908 38606 ft 470 kts 250°
2026-04-07 14:26 36.15583 -32.38296 38602 ft 470 kts 250°
2026-04-07 14:26 36.12870 -32.45655 38601 ft 470 kts 250°
2026-04-07 14:27 36.10152 -32.53011 38605 ft 470 kts 250°
2026-04-07 14:27 36.07433 -32.60355 38598 ft 470 kts 250°
2026-04-07 14:28 36.04710 -32.67693 38601 ft 469 kts 249°
2026-04-07 14:28 36.01999 -32.74981 38603 ft 469 kts 249°
2026-04-07 14:29 35.99268 -32.82304 38602 ft 469 kts 249°
2026-04-07 14:29 35.96530 -32.89628 38593 ft 469 kts 249°
2026-04-07 14:30 35.93788 -32.96949 38603 ft 470 kts 249°
2026-04-07 14:30 35.91044 -33.04257 38605 ft 469 kts 249°
2026-04-07 14:31 35.88289 -33.11575 38603 ft 469 kts 249°
2026-04-07 14:31 35.85536 -33.18875 38599 ft 470 kts 248°
2026-04-07 14:32 35.82794 -33.26127 38602 ft 470 kts 248°
2026-04-07 14:32 35.80030 -33.33418 38602 ft 470 kts 248°
2026-04-07 14:33 35.77264 -33.40701 38603 ft 470 kts 248°
2026-04-07 14:33 35.74488 -33.47995 38603 ft 470 kts 248°
2026-04-07 14:34 35.72180 -33.54045 38602 ft 470 kts 248°
2026-04-07 14:34 35.69396 -33.61325 38603 ft 470 kts 248°
2026-04-07 14:35 35.66605 -33.68608 38600 ft 470 kts 248°
2026-04-07 14:35 35.63814 -33.75878 38602 ft 470 kts 247°
2026-04-07 14:36 35.61011 -33.83159 38603 ft 470 kts 247°
2026-04-07 14:36 35.58223 -33.90385 38602 ft 470 kts 247°
2026-04-07 14:37 35.55418 -33.97640 38602 ft 470 kts 247°
2026-04-07 14:37 35.52611 -34.04884 38602 ft 470 kts 247°
2026-04-07 14:38 35.49796 -34.12133 38602 ft 470 kts 247°
2026-04-07 14:38 35.46974 -34.19380 38602 ft 470 kts 247°
2026-04-07 14:39 35.42751 -34.30202 38603 ft 470 kts 246°
2026-04-07 14:40 35.39919 -34.37436 38602 ft 470 kts 246°
2026-04-07 14:40 35.37084 -34.44661 38602 ft 470 kts 246°
2026-04-07 14:41 35.34247 -34.51879 38602 ft 471 kts 246°
2026-04-07 14:41 35.31401 -34.59101 38602 ft 471 kts 246°
2026-04-07 14:42 35.28549 -34.66323 38602 ft 471 kts 246°
2026-04-07 14:42 35.25696 -34.73531 38602 ft 471 kts 246°
2026-04-07 14:43 35.22836 -34.80743 38602 ft 471 kts 245°
2026-04-07 14:43 35.19989 -34.87903 38599 ft 471 kts 245°
2026-04-07 14:44 35.17123 -34.95097 38599 ft 471 kts 245°
2026-04-07 14:44 35.14247 -35.02301 38598 ft 471 kts 245°
2026-04-07 14:45 35.11370 -35.09490 38600 ft 471 kts 245°
2026-04-07 14:45 35.08486 -35.16681 38599 ft 471 kts 245°
2026-04-07 14:46 35.05600 -35.23862 38600 ft 471 kts 245°
2026-04-07 14:46 35.02705 -35.31049 38597 ft 471 kts 245°
2026-04-07 14:47 34.99810 -35.38223 38597 ft 471 kts 245°
2026-04-07 14:47 34.96929 -35.45343 38594 ft 471 kts 245°
2026-04-07 14:48 34.94024 -35.52510 38594 ft 471 kts 244°
2026-04-07 14:48 34.91121 -35.59656 38591 ft 470 kts 244°
2026-04-07 14:49 34.88219 -35.66785 38591 ft 470 kts 244°
2026-04-07 14:49 34.85313 -35.73905 38591 ft 470 kts 244°
2026-04-07 14:50 34.82424 -35.80973 38592 ft 469 kts 244°
2026-04-07 14:50 34.79513 -35.88076 38591 ft 468 kts 244°
2026-04-07 14:51 34.76603 -35.95165 38591 ft 468 kts 244°
2026-04-07 14:51 34.73688 -36.02248 38592 ft 468 kts 244°
2026-04-07 14:52 34.70779 -36.09303 38589 ft 466 kts 244°
2026-04-07 14:52 34.67869 -36.16346 38590 ft 466 kts 244°
2026-04-07 14:53 34.64956 -36.23380 38589 ft 466 kts 244°
2026-04-07 14:53 34.62038 -36.30414 38589 ft 465 kts 244°
2026-04-07 14:54 34.59125 -36.37420 38589 ft 465 kts 244°
2026-04-07 14:54 34.56210 -36.44416 38589 ft 465 kts 244°
2026-04-07 14:55 34.53311 -36.51359 38586 ft 465 kts 244°
2026-04-07 14:55 34.50386 -36.58349 38584 ft 465 kts 244°
2026-04-07 14:56 34.47460 -36.65329 38583 ft 465 kts 244°
2026-04-07 14:56 34.44525 -36.72316 38582 ft 465 kts 244°
2026-04-07 14:57 34.41590 -36.79287 38584 ft 464 kts 244°
2026-04-07 14:57 34.38655 -36.86245 38583 ft 464 kts 244°
2026-04-07 14:58 34.35718 -36.93193 38584 ft 464 kts 244°
2026-04-07 14:58 34.32779 -37.00131 38579 ft 464 kts 244°
2026-04-07 14:59 34.29830 -37.07081 38574 ft 464 kts 243°
2026-04-07 14:59 34.26899 -37.13974 38575 ft 464 kts 243°
2026-04-07 15:00 34.23946 -37.20901 38575 ft 464 kts 243°
2026-04-07 15:00 34.20989 -37.27829 38579 ft 464 kts 243°
2026-04-07 15:01 34.18024 -37.34758 38578 ft 464 kts 243°
2026-04-07 15:01 34.15059 -37.41672 38577 ft 464 kts 243°
2026-04-07 15:02 34.12088 -37.48588 38570 ft 464 kts 243°
2026-04-07 15:02 34.09234 -37.55220 38573 ft 464 kts 243°
2026-04-07 15:03 34.06276 -37.62078 38573 ft 464 kts 243°
2026-04-07 15:03 34.03289 -37.68989 38573 ft 464 kts 243°
2026-04-07 15:04 34.00301 -37.75892 38569 ft 464 kts 242°
2026-04-07 15:04 33.97319 -37.82764 38570 ft 463 kts 242°
2026-04-07 15:05 33.94325 -37.89650 38570 ft 463 kts 242°
2026-04-07 15:05 33.91331 -37.96523 38574 ft 463 kts 242°
2026-04-07 15:06 33.88339 -38.03380 38568 ft 463 kts 242°
2026-04-07 15:06 33.85340 -38.10236 38567 ft 462 kts 242°
2026-04-07 15:07 33.82362 -38.17033 38567 ft 462 kts 242°
2026-04-07 15:07 33.79361 -38.23868 38564 ft 462 kts 242°
2026-04-07 15:08 33.76360 -38.30690 38565 ft 461 kts 242°
2026-04-07 15:08 33.73356 -38.37507 38565 ft 461 kts 242°
2026-04-07 15:09 33.70351 -38.44311 38563 ft 461 kts 242°
2026-04-07 15:09 33.67347 -38.51100 38561 ft 460 kts 242°
2026-04-07 15:10 33.64345 -38.57874 38562 ft 460 kts 242°
2026-04-07 15:10 33.61353 -38.64608 38563 ft 460 kts 242°
2026-04-07 15:11 33.58343 -38.71372 38562 ft 459 kts 242°
2026-04-07 15:11 33.55337 -38.78116 38561 ft 458 kts 242°
2026-04-07 15:12 33.52324 -38.84860 38563 ft 458 kts 242°
2026-04-07 15:12 33.49310 -38.91594 38562 ft 458 kts 242°
2026-04-07 15:13 33.46292 -38.98323 38559 ft 458 kts 242°
2026-04-07 15:13 33.43267 -39.05056 38560 ft 458 kts 242°
2026-04-07 15:14 33.40260 -39.11737 38560 ft 458 kts 241°
2026-04-07 15:14 33.37232 -39.18451 38559 ft 458 kts 241°
2026-04-07 15:15 33.34204 -39.25154 38558 ft 458 kts 241°
2026-04-07 15:15 33.31171 -39.31853 38554 ft 458 kts 241°
2026-04-07 15:16 33.28138 -39.38541 38554 ft 458 kts 241°
2026-04-07 15:16 33.25101 -39.45224 38553 ft 458 kts 241°
2026-04-07 15:17 33.22062 -39.51900 38554 ft 458 kts 241°
2026-04-07 15:17 33.19019 -39.58572 38552 ft 458 kts 241°
2026-04-07 15:18 33.15972 -39.65240 38551 ft 457 kts 241°
2026-04-07 15:18 33.12922 -39.71902 38550 ft 457 kts 241°
2026-04-07 15:19 33.09871 -39.78554 38549 ft 457 kts 241°
2026-04-07 15:19 33.06817 -39.85201 38548 ft 457 kts 241°
2026-04-07 15:20 33.03784 -39.91791 38547 ft 456 kts 241°
2026-04-07 15:20 33.00725 -39.98423 38545 ft 456 kts 241°
2026-04-07 15:21 32.98258 -40.04036 38547 ft 456 kts 245°
2026-04-07 15:21 32.95750 -40.10921 38547 ft 456 kts 247°
2026-04-07 15:22 32.93283 -40.17880 38545 ft 456 kts 246°
2026-04-07 15:22 32.90746 -40.24804 38546 ft 456 kts 246°
2026-04-07 15:23 32.88168 -40.31690 38543 ft 455 kts 246°
2026-04-07 15:23 32.85579 -40.38564 38542 ft 455 kts 246°
2026-04-07 15:24 32.82988 -40.45438 38542 ft 455 kts 246°
2026-04-07 15:24 32.80397 -40.52301 38539 ft 455 kts 246°
2026-04-07 15:25 32.77819 -40.59122 38539 ft 455 kts 246°
2026-04-07 15:25 32.75222 -40.65979 38538 ft 455 kts 246°
2026-04-07 15:26 32.72621 -40.72831 38539 ft 455 kts 246°
2026-04-07 15:26 32.70014 -40.79685 38538 ft 455 kts 246°
2026-04-07 15:27 32.67422 -40.86489 38537 ft 454 kts 246°
2026-04-07 15:27 32.64809 -40.93328 38533 ft 454 kts 246°
2026-04-07 15:28 32.62197 -41.00156 38539 ft 454 kts 246°
2026-04-07 15:28 32.59582 -41.06977 38536 ft 454 kts 246°
2026-04-07 15:29 32.56966 -41.13788 38534 ft 454 kts 246°
2026-04-07 15:29 32.54345 -41.20597 38535 ft 454 kts 246°
2026-04-07 15:30 32.51719 -41.27404 38535 ft 454 kts 246°
2026-04-07 15:30 32.49092 -41.34203 38535 ft 454 kts 246°
2026-04-07 15:31 32.46478 -41.40953 38533 ft 454 kts 246°
2026-04-07 15:31 32.43846 -41.47737 38532 ft 454 kts 246°
2026-04-07 15:32 32.41205 -41.54531 38533 ft 454 kts 246°
2026-04-07 15:32 32.38562 -41.61316 38527 ft 454 kts 246°
2026-04-07 15:33 32.35916 -41.68096 38527 ft 454 kts 246°
2026-04-07 15:33 32.33282 -41.74832 38526 ft 454 kts 246°
2026-04-07 15:34 32.30631 -41.81599 38525 ft 454 kts 246°
2026-04-07 15:34 32.27970 -41.88377 38523 ft 454 kts 246°
2026-04-07 15:35 32.25312 -41.95134 38521 ft 454 kts 246°
2026-04-07 15:35 32.22651 -42.01888 38524 ft 454 kts 246°
2026-04-07 15:36 32.19986 -42.08637 38521 ft 454 kts 246°
2026-04-07 15:36 32.17315 -42.15388 38521 ft 453 kts 246°
2026-04-07 15:37 32.14643 -42.22129 38518 ft 453 kts 246°
2026-04-07 15:37 32.11983 -42.28828 38519 ft 453 kts 245°
2026-04-07 15:38 32.09306 -42.35557 38519 ft 453 kts 245°
2026-04-07 15:38 32.06624 -42.42285 38517 ft 453 kts 245°
2026-04-07 15:39 32.03945 -42.48990 38516 ft 452 kts 245°
2026-04-07 15:39 32.01263 -42.55693 38512 ft 451 kts 245°
2026-04-07 15:40 31.98578 -42.62391 38512 ft 451 kts 245°
2026-04-07 15:40 31.95912 -42.69027 38510 ft 451 kts 245°
2026-04-07 15:41 31.93231 -42.75689 38506 ft 450 kts 245°
2026-04-07 15:41 31.90542 -42.82357 38508 ft 450 kts 245°
2026-04-07 15:42 31.87849 -42.89022 38506 ft 449 kts 245°
2026-04-07 15:42 31.83820 -42.98975 38503 ft 449 kts 245°
2026-04-07 15:43 31.81148 -43.05558 38504 ft 449 kts 245°
2026-04-07 15:43 31.78459 -43.12170 38510 ft 448 kts 245°
2026-04-07 15:44 31.75770 -43.18772 38506 ft 448 kts 245°
2026-04-07 15:44 31.73077 -43.25369 38503 ft 448 kts 245°
2026-04-07 15:45 31.70377 -43.31974 38506 ft 448 kts 245°
2026-04-07 15:45 31.67679 -43.38562 38497 ft 448 kts 245°
2026-04-07 15:46 31.64975 -43.45150 38496 ft 448 kts 245°
2026-04-07 15:46 31.62271 -43.51726 38494 ft 447 kts 245°
2026-04-07 15:47 31.59560 -43.58308 38490 ft 447 kts 245°
2026-04-07 15:47 31.56867 -43.64835 38488 ft 447 kts 245°
2026-04-07 15:48 31.54152 -43.71404 38488 ft 447 kts 245°
2026-04-07 15:48 31.51436 -43.77961 38490 ft 447 kts 245°
2026-04-07 15:49 31.48716 -43.84518 38490 ft 447 kts 245°
2026-04-07 15:49 31.45992 -43.91071 38485 ft 447 kts 244°
2026-04-07 15:50 31.43264 -43.97621 38481 ft 447 kts 244°
2026-04-07 15:50 31.40551 -44.04126 38479 ft 447 kts 244°
2026-04-07 15:51 31.37819 -44.10665 38484 ft 447 kts 244°
2026-04-07 15:51 31.35081 -44.17205 38483 ft 447 kts 244°
2026-04-07 15:52 31.32343 -44.23733 38481 ft 447 kts 244°
2026-04-07 15:52 31.29598 -44.30267 38480 ft 447 kts 244°
2026-04-07 15:53 31.26849 -44.36800 38485 ft 448 kts 244°
2026-04-07 15:53 31.24092 -44.43338 38479 ft 448 kts 244°
2026-04-07 15:54 31.21340 -44.49855 38477 ft 448 kts 244°
2026-04-07 15:54 31.18578 -44.56381 38474 ft 448 kts 244°
2026-04-07 15:55 31.15814 -44.62901 38467 ft 448 kts 244°
2026-04-07 15:55 31.13049 -44.69413 38465 ft 448 kts 244°
2026-04-07 15:56 31.10295 -44.75887 38472 ft 448 kts 244°
2026-04-07 15:56 31.07523 -44.82393 38467 ft 448 kts 243°
2026-04-07 15:57 31.04749 -44.88890 38469 ft 447 kts 243°
2026-04-07 15:57 31.01973 -44.95382 38465 ft 447 kts 243°
2026-04-07 15:58 30.98982 -45.01731 38468 ft 447 kts 238°
2026-04-07 15:58 30.95607 -45.07832 38470 ft 447 kts 237°
2026-04-07 15:59 30.92176 -45.13881 38478 ft 448 kts 237°
2026-04-07 15:59 30.88736 -45.19930 38484 ft 448 kts 237°
2026-04-07 16:00 30.85302 -45.25977 38480 ft 447 kts 237°
2026-04-07 16:00 30.81869 -45.32021 38468 ft 447 kts 237°
2026-04-07 16:01 30.78458 -45.38021 38470 ft 448 kts 237°
2026-04-07 16:01 30.75021 -45.44057 38458 ft 447 kts 237°
2026-04-07 16:02 30.71581 -45.50087 38463 ft 447 kts 237°
2026-04-07 16:02 30.68134 -45.56119 38459 ft 448 kts 237°
2026-04-07 16:03 30.64687 -45.62145 38462 ft 448 kts 237°
2026-04-07 16:03 30.61236 -45.68167 38463 ft 447 kts 237°
2026-04-07 16:04 30.57783 -45.74182 38455 ft 448 kts 237°
2026-04-07 16:04 30.54324 -45.80201 38465 ft 448 kts 237°
2026-04-07 16:05 30.50860 -45.86218 38459 ft 448 kts 236°
2026-04-07 16:05 30.47403 -45.92213 38450 ft 448 kts 236°
2026-04-07 16:06 30.44514 -45.97219 38459 ft 449 kts 236°
2026-04-07 16:06 30.40479 -46.04197 38437 ft 449 kts 236°
2026-04-07 16:07 30.37000 -46.10204 38440 ft 448 kts 236°
2026-04-07 16:07 30.34102 -46.15200 38447 ft 449 kts 236°
2026-04-07 16:08 30.30614 -46.21207 38447 ft 449 kts 236°
2026-04-07 16:08 30.27120 -46.27215 38443 ft 449 kts 236°
2026-04-07 16:09 30.23627 -46.33211 38439 ft 450 kts 236°
2026-04-07 16:09 30.20123 -46.39218 38439 ft 450 kts 236°
2026-04-07 16:10 30.16640 -46.45180 38441 ft 450 kts 236°
2026-04-07 16:10 30.13130 -46.51178 38443 ft 450 kts 236°
2026-04-07 16:11 30.09614 -46.57179 38442 ft 451 kts 236°
2026-04-07 16:11 30.06092 -46.63180 38438 ft 451 kts 236°
2026-04-07 16:12 30.02568 -46.69177 38438 ft 451 kts 236°
2026-04-07 16:12 29.99039 -46.75174 38438 ft 451 kts 236°
2026-04-07 16:13 29.95531 -46.81124 38435 ft 451 kts 236°
2026-04-07 16:13 29.91996 -46.87113 38435 ft 451 kts 236°
2026-04-07 16:14 29.88457 -46.93099 38423 ft 451 kts 236°
2026-04-07 16:14 29.84915 -46.99081 38436 ft 452 kts 236°
2026-04-07 16:15 29.81368 -47.05064 38432 ft 452 kts 236°
2026-04-07 16:15 29.77818 -47.11043 38428 ft 452 kts 236°
2026-04-07 16:16 29.74288 -47.16977 38426 ft 452 kts 236°
2026-04-07 16:16 29.70730 -47.22953 38422 ft 453 kts 236°
2026-04-07 16:17 29.67165 -47.28930 38416 ft 450 kts 236°
2026-04-07 16:17 29.63653 -47.34809 38424 ft 442 kts 236°
2026-04-07 16:18 29.60202 -47.40580 38419 ft 434 kts 236°
2026-04-07 16:18 29.56796 -47.46266 38429 ft 431 kts 236°
2026-04-07 16:19 29.53347 -47.52017 38423 ft 442 kts 236°
2026-04-07 16:19 29.49852 -47.57836 38413 ft 453 kts 236°
2026-04-07 16:20 29.46267 -47.63796 38419 ft 454 kts 236°
2026-04-07 16:20 29.42670 -47.69768 38419 ft 454 kts 236°
2026-04-07 16:21 29.39099 -47.75687 38414 ft 454 kts 236°
2026-04-07 16:21 29.35500 -47.81644 38412 ft 454 kts 236°
2026-04-07 16:22 29.31894 -47.87604 38411 ft 455 kts 236°
2026-04-07 16:22 29.28281 -47.93568 38409 ft 455 kts 236°
2026-04-07 16:23 29.24665 -47.99529 38408 ft 455 kts 236°
2026-04-07 16:23 29.21043 -48.05491 38409 ft 457 kts 236°
2026-04-07 16:24 29.17403 -48.11472 38409 ft 458 kts 236°
2026-04-07 16:24 29.13784 -48.17411 38403 ft 458 kts 236°
2026-04-07 16:25 29.10136 -48.23389 38397 ft 458 kts 236°
2026-04-07 16:25 29.06481 -48.29369 38403 ft 459 kts 236°
2026-04-07 16:26 29.02819 -48.35354 38398 ft 459 kts 236°
2026-04-07 16:26 28.99157 -48.41330 38394 ft 459 kts 236°
2026-04-07 16:27 28.95480 -48.47320 38395 ft 460 kts 236°
2026-04-07 16:27 28.91830 -48.53259 38392 ft 460 kts 236°
2026-04-07 16:28 28.88148 -48.59241 38390 ft 460 kts 236°
2026-04-07 16:28 28.84465 -48.65217 38393 ft 460 kts 236°
2026-04-07 16:29 28.80779 -48.71188 38387 ft 460 kts 236°
2026-04-07 16:29 28.77095 -48.77148 38387 ft 459 kts 236°
2026-04-07 16:30 28.73411 -48.83101 38387 ft 459 kts 236°
2026-04-07 16:30 28.69729 -48.89040 38384 ft 459 kts 236°
2026-04-07 16:31 28.66044 -48.94977 38379 ft 459 kts 236°
2026-04-07 16:31 28.62358 -49.00907 38379 ft 459 kts 236°
2026-04-07 16:32 28.58691 -49.06799 38379 ft 459 kts 236°
2026-04-07 16:32 28.54995 -49.12727 38373 ft 461 kts 236°
2026-04-07 16:33 28.51286 -49.18669 38379 ft 461 kts 236°
2026-04-07 16:33 28.47570 -49.24614 38376 ft 461 kts 236°
2026-04-07 16:34 28.43843 -49.30569 38380 ft 461 kts 236°
2026-04-07 16:34 28.40125 -49.36500 38375 ft 461 kts 235°
2026-04-07 16:35 28.36405 -49.42426 38373 ft 461 kts 235°
2026-04-07 16:35 28.32684 -49.48346 38371 ft 461 kts 235°
2026-04-07 16:36 28.28958 -49.54265 38372 ft 461 kts 235°
2026-04-07 16:36 28.25252 -49.60144 38365 ft 461 kts 235°
2026-04-07 16:37 28.21491 -49.66102 38366 ft 461 kts 235°
2026-04-07 16:37 28.17778 -49.71977 38365 ft 461 kts 235°
2026-04-07 16:38 28.14039 -49.77885 38363 ft 462 kts 235°
2026-04-07 16:38 28.10289 -49.83801 38365 ft 462 kts 235°
2026-04-07 16:39 28.06541 -49.89706 38362 ft 462 kts 235°
2026-04-07 16:39 28.02786 -49.95614 38360 ft 462 kts 235°
2026-04-07 16:40 27.99021 -50.01509 38361 ft 463 kts 234°
2026-04-07 16:40 27.94894 -50.07103 38357 ft 463 kts 230°
2026-04-07 16:41 27.90605 -50.12542 38357 ft 463 kts 230°
2026-04-07 16:41 27.86359 -50.18019 38354 ft 463 kts 230°
2026-04-07 16:42 27.82154 -50.23533 38341 ft 463 kts 230°
2026-04-07 16:42 27.77963 -50.29054 38349 ft 463 kts 230°
2026-04-07 16:43 27.73773 -50.34566 38349 ft 463 kts 230°
2026-04-07 16:43 27.69577 -50.40074 38349 ft 463 kts 230°
2026-04-07 16:44 27.65379 -50.45575 38345 ft 463 kts 230°
2026-04-07 16:44 27.61172 -50.51081 38349 ft 464 kts 230°
2026-04-07 16:45 27.56960 -50.56586 38347 ft 464 kts 230°
2026-04-07 16:45 27.52743 -50.62091 38343 ft 464 kts 230°
2026-04-07 16:46 27.48527 -50.67586 38342 ft 463 kts 230°
2026-04-07 16:46 27.44342 -50.73036 38341 ft 463 kts 230°
2026-04-07 16:47 27.40127 -50.78517 38341 ft 463 kts 230°
2026-04-07 16:47 27.35909 -50.83996 38338 ft 463 kts 230°
2026-04-07 16:48 27.31688 -50.89470 38336 ft 463 kts 230°
2026-04-07 16:49 27.25352 -50.97677 38336 ft 463 kts 230°
2026-04-07 16:49 27.21124 -51.03144 38333 ft 463 kts 230°
2026-04-07 16:50 27.16892 -51.08609 38330 ft 464 kts 230°
2026-04-07 16:50 27.12657 -51.14071 38330 ft 464 kts 230°
2026-04-07 16:51 27.08419 -51.19529 38334 ft 464 kts 230°
2026-04-07 16:51 27.04181 -51.24982 38327 ft 464 kts 230°
2026-04-07 16:52 26.99939 -51.30433 38323 ft 464 kts 230°
2026-04-07 16:52 26.95694 -51.35881 38324 ft 464 kts 230°
2026-04-07 16:53 26.91441 -51.41332 38322 ft 465 kts 230°
2026-04-07 16:53 26.87179 -51.46788 38319 ft 465 kts 230°
2026-04-07 16:54 26.82916 -51.52238 38318 ft 465 kts 230°
2026-04-07 16:54 26.79367 -51.56771 38317 ft 465 kts 230°
2026-04-07 16:55 26.75094 -51.62222 38317 ft 466 kts 230°
2026-04-07 16:55 26.70810 -51.67679 38314 ft 467 kts 230°
2026-04-07 16:56 26.66522 -51.73137 38306 ft 467 kts 230°
2026-04-07 16:56 26.62232 -51.78589 38309 ft 467 kts 230°
2026-04-07 16:57 26.57943 -51.84033 38306 ft 468 kts 230°
2026-04-07 16:57 26.53636 -51.89493 38303 ft 468 kts 230°
2026-04-07 16:58 26.49328 -51.94949 38299 ft 468 kts 230°
2026-04-07 16:58 26.45018 -52.00398 38303 ft 468 kts 230°
2026-04-07 16:59 26.40705 -52.05847 38302 ft 468 kts 230°
2026-04-07 16:59 26.36386 -52.11296 38298 ft 470 kts 230°
2026-04-07 17:00 26.32052 -52.16756 38289 ft 470 kts 230°
2026-04-07 17:00 26.27719 -52.22209 38291 ft 470 kts 230°
2026-04-07 17:01 26.23412 -52.27622 38287 ft 470 kts 230°
2026-04-07 17:01 26.19069 -52.33075 38286 ft 472 kts 230°
2026-04-07 17:02 26.14708 -52.38543 38300 ft 472 kts 230°
2026-04-07 17:02 26.10348 -52.44004 38294 ft 471 kts 230°
2026-04-07 17:03 26.05992 -52.49451 38279 ft 471 kts 230°
2026-04-07 17:03 26.01636 -52.54894 38290 ft 472 kts 230°
2026-04-07 17:04 25.97258 -52.60357 38288 ft 474 kts 230°
2026-04-07 17:04 25.92868 -52.65828 38288 ft 474 kts 230°
2026-04-07 17:05 25.88482 -52.71288 38287 ft 474 kts 230°
2026-04-07 17:05 25.84091 -52.76746 38284 ft 474 kts 230°
2026-04-07 17:06 25.79689 -52.82213 38276 ft 476 kts 230°
2026-04-07 17:06 25.75286 -52.87674 38281 ft 475 kts 230°
2026-04-07 17:07 25.70880 -52.93132 38281 ft 475 kts 230°
2026-04-07 17:07 25.66474 -52.98583 38272 ft 475 kts 230°
2026-04-07 17:08 25.62062 -53.04034 38276 ft 476 kts 230°
2026-04-07 17:08 25.57639 -53.09495 38278 ft 476 kts 230°
2026-04-07 17:09 25.53218 -53.14946 38276 ft 475 kts 230°
2026-04-07 17:09 25.48827 -53.20352 38275 ft 475 kts 230°
2026-04-07 17:10 25.44405 -53.25791 38273 ft 475 kts 230°
2026-04-07 17:10 25.39969 -53.31241 38271 ft 478 kts 230°
2026-04-07 17:11 25.35519 -53.36701 38274 ft 478 kts 230°
2026-04-07 17:11 25.31064 -53.42161 38267 ft 478 kts 230°
2026-04-07 17:12 25.26609 -53.47614 38268 ft 478 kts 230°
2026-04-07 17:12 25.22152 -53.53064 38260 ft 477 kts 230°
2026-04-07 17:13 25.17707 -53.58491 38267 ft 476 kts 230°
2026-04-07 17:13 25.13269 -53.63905 38264 ft 476 kts 230°
2026-04-07 17:14 25.08823 -53.69322 38265 ft 476 kts 230°
2026-04-07 17:14 25.04379 -53.74730 38255 ft 475 kts 230°
2026-04-07 17:15 24.99935 -53.80131 38262 ft 475 kts 230°
2026-04-07 17:15 24.95489 -53.85529 38267 ft 476 kts 230°
2026-04-07 17:16 24.91039 -53.90925 38257 ft 476 kts 230°
2026-04-07 17:16 24.86585 -53.96321 38248 ft 476 kts 230°
2026-04-07 17:17 24.82143 -54.01694 38254 ft 474 kts 230°
2026-04-07 17:17 24.77695 -54.07070 38257 ft 475 kts 230°
2026-04-07 17:18 24.73242 -54.12446 38257 ft 475 kts 230°
2026-04-07 17:18 24.68785 -54.17820 38252 ft 475 kts 230°
2026-04-07 17:19 24.64334 -54.23179 38251 ft 473 kts 230°
2026-04-07 17:19 24.59893 -54.28523 38246 ft 474 kts 230°
2026-04-07 17:20 24.55437 -54.33878 38244 ft 475 kts 230°
2026-04-07 17:20 24.50981 -54.39226 38247 ft 475 kts 230°
2026-04-07 17:21 24.46521 -54.44572 38240 ft 474 kts 230°
2026-04-07 17:21 24.42082 -54.49887 38240 ft 472 kts 230°
2026-04-07 17:22 24.37642 -54.55199 38239 ft 473 kts 230°
2026-04-07 17:22 24.33219 -54.60486 38235 ft 473 kts 230°
2026-04-07 17:23 24.28762 -54.65804 38226 ft 473 kts 230°
2026-04-07 17:23 24.24319 -54.71098 38233 ft 471 kts 230°
2026-04-07 17:24 24.19888 -54.76376 38232 ft 470 kts 230°
2026-04-07 17:24 24.15452 -54.81656 38230 ft 471 kts 230°
2026-04-07 17:25 24.11008 -54.86936 38231 ft 471 kts 230°
2026-04-07 17:25 24.06567 -54.92208 38224 ft 471 kts 230°
2026-04-07 17:26 24.02122 -54.97468 38223 ft 471 kts 229°
2026-04-07 17:26 23.97051 -55.02040 38220 ft 476 kts 217°
2026-04-07 17:27 23.91511 -55.06022 38222 ft 477 kts 216°
2026-04-07 17:27 23.85903 -55.09905 38222 ft 477 kts 215°
2026-04-07 17:28 23.80297 -55.13789 38217 ft 477 kts 215°
2026-04-07 17:28 23.74707 -55.17681 38216 ft 477 kts 216°
2026-04-07 17:29 23.69117 -55.21580 38212 ft 477 kts 216°
2026-04-07 17:29 23.63525 -55.25478 38212 ft 477 kts 216°
2026-04-07 17:30 23.57940 -55.29365 38210 ft 476 kts 216°
2026-04-07 17:30 23.52356 -55.33248 38214 ft 476 kts 216°
2026-04-07 17:31 23.47019 -55.36955 38240 ft 477 kts 216°
2026-04-07 17:31 23.44232 -55.38890 38523 ft 476 kts 216°
2026-04-07 17:31 23.41443 -55.40824 38883 ft 473 kts 216°
2026-04-07 17:31 23.38673 -55.42743 39154 ft 472 kts 216°
2026-04-07 17:32 23.35910 -55.44657 39375 ft 471 kts 216°
2026-04-07 17:32 23.33190 -55.46542 39590 ft 470 kts 216°
2026-04-07 17:32 23.30646 -55.48303 39760 ft 470 kts 216°
2026-04-07 17:32 23.27890 -55.50211 39955 ft 469 kts 216°
2026-04-07 17:33 23.25133 -55.52118 40138 ft 469 kts 216°
2026-04-07 17:33 23.19609 -55.55937 40198 ft 470 kts 216°
2026-04-07 17:34 23.14095 -55.59744 40202 ft 469 kts 216°
2026-04-07 17:34 23.08979 -55.63273 40200 ft 469 kts 216°
2026-04-07 17:35 23.03438 -55.67092 40200 ft 469 kts 216°
2026-04-07 17:35 22.97932 -55.70882 40184 ft 469 kts 217°
2026-04-07 17:36 22.92432 -55.74665 40197 ft 467 kts 217°
2026-04-07 17:36 22.86940 -55.78439 40198 ft 467 kts 217°
2026-04-07 17:37 22.81451 -55.82206 40197 ft 467 kts 217°
2026-04-07 17:37 22.75962 -55.85971 40195 ft 467 kts 217°
2026-04-07 17:38 22.70477 -55.89728 40194 ft 466 kts 217°
2026-04-07 17:38 22.65040 -55.93450 40189 ft 465 kts 217°
2026-04-07 17:39 22.59572 -55.97189 40187 ft 465 kts 217°
2026-04-07 17:39 22.54099 -56.00929 40187 ft 465 kts 217°
2026-04-07 17:40 22.48625 -56.04665 40186 ft 465 kts 217°
2026-04-07 17:40 22.44081 -56.07763 40184 ft 464 kts 217°
2026-04-07 17:41 22.38622 -56.11483 40184 ft 464 kts 217°
2026-04-07 17:41 22.33283 -56.15118 40178 ft 464 kts 217°
2026-04-07 17:42 22.27826 -56.18829 40170 ft 464 kts 217°
2026-04-07 17:42 22.22522 -56.22432 40179 ft 463 kts 217°
2026-04-07 17:43 22.17062 -56.26139 40176 ft 463 kts 217°
2026-04-07 17:43 22.11612 -56.29835 40176 ft 463 kts 217°
2026-04-07 17:44 22.06154 -56.33534 40176 ft 463 kts 217°
2026-04-07 17:44 22.00702 -56.37224 40176 ft 462 kts 217°
2026-04-07 17:45 21.95261 -56.40903 40174 ft 462 kts 217°
2026-04-07 17:45 21.89824 -56.44578 40168 ft 462 kts 217°
2026-04-07 17:46 21.87098 -56.46419 40171 ft 462 kts 217°
2026-04-07 17:47 21.83073 -56.49135 40167 ft 462 kts 217°
2026-04-07 17:47 21.77635 -56.52801 40164 ft 460 kts 217°
2026-04-07 17:48 21.72221 -56.56447 40165 ft 459 kts 217°
2026-04-07 17:48 21.66819 -56.60085 40161 ft 459 kts 217°
2026-04-07 17:49 21.61402 -56.63729 40160 ft 459 kts 217°
2026-04-07 17:49 21.55990 -56.67364 40152 ft 459 kts 218°
2026-04-07 17:50 21.50627 -56.70963 40160 ft 457 kts 218°
2026-04-07 17:50 21.45244 -56.74573 40158 ft 456 kts 218°
2026-04-07 17:51 21.39856 -56.78186 40154 ft 456 kts 218°
2026-04-07 17:51 21.34478 -56.81787 40154 ft 456 kts 218°
2026-04-07 17:52 21.29093 -56.85387 40154 ft 455 kts 218°
2026-04-07 17:52 21.23720 -56.88979 40153 ft 455 kts 218°
2026-04-07 17:53 21.18354 -56.92563 40154 ft 454 kts 218°
2026-04-07 17:53 21.10299 -56.97937 40156 ft 455 kts 218°
2026-04-07 17:54 21.04930 -57.01515 40154 ft 455 kts 218°
2026-04-07 17:54 20.99559 -57.05090 40150 ft 455 kts 218°
2026-04-07 17:55 20.94190 -57.08662 40145 ft 455 kts 218°
2026-04-07 17:55 20.88815 -57.12234 40145 ft 455 kts 218°
2026-04-07 17:56 20.83439 -57.15804 40143 ft 455 kts 218°
2026-04-07 17:56 20.78071 -57.19364 40145 ft 453 kts 218°
2026-04-07 17:57 20.72714 -57.22916 40144 ft 453 kts 218°
2026-04-07 17:57 20.67354 -57.26467 40144 ft 453 kts 218°
2026-04-07 17:58 20.61994 -57.30015 40140 ft 453 kts 218°
2026-04-07 17:58 20.56637 -57.33556 40136 ft 453 kts 218°
2026-04-07 17:59 20.51286 -57.37091 40137 ft 452 kts 218°
2026-04-07 17:59 20.45931 -57.40627 40136 ft 452 kts 218°
2026-04-07 18:00 20.40584 -57.44155 40135 ft 453 kts 218°
2026-04-07 18:00 20.35222 -57.47688 40117 ft 453 kts 218°
2026-04-07 18:01 20.29871 -57.51211 40130 ft 452 kts 219°
2026-04-07 18:01 20.24526 -57.54727 40127 ft 451 kts 219°
2026-04-07 18:02 20.19184 -57.58241 40126 ft 451 kts 219°
2026-04-07 18:02 20.13839 -57.61752 40124 ft 451 kts 219°
2026-04-07 18:03 20.08496 -57.65258 40120 ft 451 kts 219°
2026-04-07 18:03 20.03156 -57.68760 40124 ft 450 kts 219°
2026-04-07 18:04 19.97821 -57.72256 40125 ft 450 kts 219°
2026-04-07 18:04 19.92486 -57.75750 40120 ft 450 kts 219°
2026-04-07 18:05 19.87155 -57.79238 40119 ft 450 kts 219°
2026-04-07 18:05 19.81822 -57.82724 40115 ft 450 kts 219°
2026-04-07 18:06 19.76493 -57.86204 40116 ft 449 kts 219°
2026-04-07 18:06 19.71171 -57.89678 40116 ft 449 kts 219°
2026-04-07 18:07 19.65882 -57.93128 40108 ft 449 kts 219°
2026-04-07 18:07 19.60559 -57.96597 40110 ft 449 kts 219°
2026-04-07 18:08 19.55236 -58.00062 40114 ft 448 kts 219°
2026-04-07 18:08 19.49927 -58.03516 40116 ft 447 kts 219°
2026-04-07 18:09 19.44619 -58.06968 40110 ft 447 kts 219°
2026-04-07 18:09 19.39314 -58.10414 40109 ft 447 kts 219°
2026-04-07 18:10 19.34006 -58.13860 40090 ft 447 kts 220°
2026-04-07 18:10 19.28702 -58.17299 40105 ft 447 kts 220°
2026-04-07 18:11 19.23404 -58.20733 40103 ft 446 kts 220°
2026-04-07 18:11 19.18113 -58.24161 40105 ft 447 kts 220°
2026-04-07 18:12 19.12807 -58.27595 40099 ft 447 kts 220°
2026-04-07 18:12 19.07504 -58.31024 40088 ft 447 kts 220°
2026-04-07 18:13 19.02205 -58.34447 40100 ft 446 kts 220°
2026-04-07 18:13 18.96906 -58.37869 40099 ft 446 kts 220°
2026-04-07 18:14 18.91637 -58.41269 40100 ft 446 kts 220°
2026-04-07 18:14 18.86335 -58.44687 40099 ft 447 kts 220°
2026-04-07 18:15 18.81024 -58.48109 40078 ft 446 kts 220°
2026-04-07 18:15 18.75723 -58.51521 40094 ft 447 kts 220°
2026-04-07 18:16 18.70413 -58.54937 40094 ft 447 kts 219°
2026-04-07 18:16 18.65110 -58.58346 40094 ft 447 kts 219°
2026-04-07 18:17 18.59807 -58.61752 40091 ft 447 kts 219°
2026-04-07 18:17 18.54490 -58.65164 40091 ft 447 kts 219°
2026-04-07 18:18 18.49184 -58.68567 40089 ft 447 kts 219°
2026-04-07 18:18 18.43867 -58.71975 40086 ft 447 kts 219°
2026-04-07 18:19 18.38556 -58.75376 40086 ft 447 kts 219°
2026-04-07 18:19 18.33244 -58.78775 40086 ft 447 kts 219°
2026-04-07 18:20 18.27931 -58.82174 40078 ft 447 kts 219°
2026-04-07 18:20 18.22615 -58.85570 40083 ft 447 kts 219°
2026-04-07 18:21 18.17292 -58.88969 40080 ft 447 kts 219°
2026-04-07 18:21 18.11977 -58.92361 40080 ft 447 kts 219°
2026-04-07 18:22 18.06654 -58.95755 40080 ft 447 kts 219°
2026-04-07 18:22 18.01336 -58.99144 40076 ft 447 kts 219°
2026-04-07 18:23 17.95935 -59.02437 40078 ft 451 kts 217°
2026-04-07 18:23 17.90430 -59.05585 40078 ft 450 kts 217°
2026-04-07 18:24 17.84975 -59.08733 40075 ft 450 kts 217°
2026-04-07 18:24 17.79490 -59.11910 40075 ft 450 kts 217°
2026-04-07 18:25 17.74004 -59.15089 40073 ft 450 kts 217°
2026-04-07 18:25 17.69444 -59.17731 40072 ft 450 kts 217°
2026-04-07 18:26 17.63030 -59.21445 40069 ft 450 kts 217°
2026-04-07 18:26 17.58471 -59.24084 40071 ft 450 kts 217°
2026-04-07 18:27 17.52992 -59.27252 40067 ft 450 kts 217°
2026-04-07 18:27 17.47502 -59.30425 40062 ft 450 kts 217°
2026-04-07 18:28 17.42011 -59.33596 40067 ft 450 kts 217°
2026-04-07 18:28 17.36540 -59.36753 40067 ft 450 kts 217°
2026-04-07 18:29 17.31054 -59.39917 40063 ft 450 kts 217°
2026-04-07 18:29 17.25566 -59.43080 40064 ft 450 kts 217°
2026-04-07 18:30 17.20077 -59.46241 40061 ft 450 kts 217°
2026-04-07 18:30 17.14593 -59.49397 40064 ft 450 kts 217°
2026-04-07 18:31 17.09113 -59.52550 40059 ft 450 kts 217°
2026-04-07 18:31 17.03629 -59.55701 40058 ft 450 kts 217°
2026-04-07 18:32 16.98141 -59.58854 40057 ft 450 kts 217°
2026-04-07 18:32 16.92662 -59.61998 40059 ft 449 kts 217°
2026-04-07 18:33 16.87183 -59.65141 40055 ft 449 kts 217°
2026-04-07 18:33 16.81706 -59.68280 40053 ft 449 kts 217°
2026-04-07 18:34 16.76234 -59.71415 40051 ft 449 kts 217°
2026-04-07 18:34 16.70758 -59.74550 40051 ft 449 kts 217°
2026-04-07 18:35 16.65284 -59.77681 40039 ft 449 kts 217°
2026-04-07 18:35 16.59801 -59.80816 40044 ft 449 kts 217°
2026-04-07 18:36 16.54324 -59.83946 40041 ft 449 kts 217°
2026-04-07 18:36 16.48842 -59.87075 40044 ft 449 kts 217°
2026-04-07 18:37 16.43361 -59.90203 40044 ft 449 kts 217°
2026-04-07 18:37 16.37923 -59.93303 40031 ft 449 kts 217°
2026-04-07 18:38 16.32444 -59.96426 40044 ft 449 kts 217°
2026-04-07 18:38 16.26930 -59.99566 40045 ft 449 kts 217°
2026-04-07 18:39 16.21486 -60.02664 40039 ft 449 kts 217°
2026-04-07 18:39 16.16010 -60.05778 40040 ft 449 kts 217°
2026-04-07 18:40 16.10528 -60.08894 39791 ft 448 kts 217°
2026-04-07 18:40 16.07805 -60.10439 39561 ft 442 kts 217°
2026-04-07 18:40 16.05125 -60.11956 39200 ft 435 kts 217°
2026-04-07 18:41 16.02477 -60.13460 38597 ft 434 kts 217°
2026-04-07 18:41 15.99833 -60.14962 37931 ft 432 kts 217°
2026-04-07 18:41 15.97200 -60.16457 37306 ft 430 kts 217°
2026-04-07 18:41 15.94582 -60.17943 36687 ft 428 kts 217°
2026-04-07 18:42 15.91999 -60.19464 36071 ft 424 kts 220°
2026-04-07 18:42 15.89698 -60.21313 35323 ft 416 kts 230°
2026-04-07 18:42 15.87623 -60.23416 34593 ft 418 kts 231°
2026-04-07 18:42 15.85559 -60.25569 33863 ft 423 kts 231°
2026-04-07 18:43 15.83473 -60.27740 33103 ft 426 kts 231°
2026-04-07 18:43 15.81379 -60.29911 32594 ft 426 kts 231°
2026-04-07 18:43 15.79395 -60.31962 32122 ft 423 kts 231°
2026-04-07 18:43 15.77313 -60.34113 31596 ft 421 kts 231°
2026-04-07 18:44 15.75245 -60.36248 31079 ft 418 kts 231°
2026-04-07 18:44 15.73189 -60.38371 30561 ft 416 kts 231°
2026-04-07 18:44 15.71145 -60.40482 30061 ft 413 kts 231°
2026-04-07 18:44 15.69108 -60.42585 29486 ft 411 kts 230°
2026-04-07 18:45 15.67084 -60.44673 28971 ft 409 kts 230°
2026-04-07 18:45 15.65075 -60.46747 28462 ft 406 kts 230°
2026-04-07 18:45 15.63073 -60.48811 27976 ft 404 kts 230°
2026-04-07 18:45 15.61082 -60.50864 27478 ft 402 kts 230°
2026-04-07 18:46 15.59106 -60.52901 26983 ft 400 kts 229°
2026-04-07 18:46 15.57134 -60.54932 26489 ft 398 kts 229°
2026-04-07 18:46 15.55178 -60.56946 25991 ft 396 kts 229°
2026-04-07 18:46 15.53230 -60.58952 25500 ft 393 kts 229°
2026-04-07 18:47 15.51295 -60.60945 25005 ft 392 kts 229°
2026-04-07 18:47 15.49389 -60.62907 24518 ft 390 kts 228°
2026-04-07 18:47 15.47467 -60.64884 24023 ft 388 kts 228°
2026-04-07 18:47 15.45553 -60.66853 23499 ft 387 kts 227°
2026-04-07 18:48 15.43649 -60.68811 22948 ft 385 kts 227°
2026-04-07 18:48 15.41756 -60.70756 22421 ft 382 kts 227°
2026-04-07 18:48 15.39877 -60.72687 21921 ft 379 kts 227°
2026-04-07 18:48 15.38013 -60.74602 21425 ft 376 kts 227°
2026-04-07 18:49 15.36162 -60.76503 20920 ft 374 kts 226°
2026-04-07 18:49 15.34297 -60.78418 20402 ft 371 kts 226°
2026-04-07 18:49 15.32468 -60.80296 19904 ft 369 kts 226°
2026-04-07 18:49 15.30676 -60.82135 19382 ft 366 kts 226°
2026-04-07 18:50 15.28875 -60.83983 18899 ft 364 kts 226°
2026-04-07 18:50 15.27082 -60.85821 18395 ft 361 kts 226°
2026-04-07 18:50 15.25305 -60.87644 17867 ft 358 kts 226°
2026-04-07 18:50 15.23538 -60.89455 17339 ft 356 kts 226°
2026-04-07 18:51 15.21789 -60.91248 16846 ft 354 kts 226°
2026-04-07 18:51 15.20042 -60.93038 16329 ft 352 kts 226°
2026-04-07 18:51 15.18304 -60.94818 15835 ft 350 kts 226°
2026-04-07 18:51 15.16577 -60.96587 15326 ft 348 kts 226°
2026-04-07 18:52 15.14864 -60.98342 14835 ft 347 kts 225°
2026-04-07 18:52 15.13147 -61.00100 14326 ft 346 kts 225°
2026-04-07 18:52 15.11442 -61.01846 13814 ft 345 kts 225°
2026-04-07 18:52 15.09735 -61.03592 13255 ft 344 kts 225°
2026-04-07 18:53 15.08038 -61.05328 12731 ft 343 kts 224°
2026-04-07 18:53 15.06343 -61.07062 12211 ft 341 kts 224°
2026-04-07 18:53 15.04662 -61.08780 11698 ft 339 kts 224°
2026-04-07 18:53 15.02992 -61.10488 11198 ft 335 kts 224°
2026-04-07 18:54 15.01373 -61.12146 11045 ft 320 kts 223°
2026-04-07 18:54 14.99826 -61.13727 10911 ft 305 kts 223°
2026-04-07 18:54 14.98352 -61.15233 10783 ft 291 kts 224°
2026-04-07 18:54 14.96946 -61.16669 10660 ft 278 kts 223°
2026-04-07 18:55 14.95586 -61.18060 10476 ft 273 kts 223°
2026-04-07 18:55 14.94245 -61.19427 10147 ft 271 kts 223°
2026-04-07 18:55 14.92895 -61.20801 9810 ft 277 kts 223°
2026-04-07 18:55 14.91524 -61.22202 9538 ft 271 kts 223°
2026-04-07 18:56 14.90203 -61.23552 9112 ft 266 kts 222°
2026-04-07 18:56 14.88901 -61.24878 8758 ft 266 kts 223°
2026-04-07 18:56 14.87577 -61.26227 8426 ft 268 kts 223°
2026-04-07 18:56 14.86254 -61.27576 8038 ft 266 kts 223°
2026-04-07 18:57 14.84879 -61.28839 7685 ft 264 kts 212°
2026-04-07 18:57 14.83231 -61.29585 7328 ft 257 kts 188°
2026-04-07 18:57 14.81467 -61.29563 7014 ft 253 kts 166°
2026-04-07 18:57 14.79780 -61.29051 6702 ft 252 kts 158°
2026-04-07 18:58 14.78137 -61.28461 6390 ft 250 kts 159°
2026-04-07 18:58 14.76484 -61.27866 6080 ft 251 kts 159°
2026-04-07 18:58 14.74839 -61.27285 5767 ft 249 kts 159°
2026-04-07 18:58 14.73203 -61.26714 5472 ft 247 kts 158°
2026-04-07 18:59 14.71577 -61.26147 5167 ft 246 kts 158°
2026-04-07 18:59 14.69970 -61.25590 4879 ft 242 kts 157°
2026-04-07 18:59 14.68377 -61.25035 4572 ft 243 kts 158°
2026-04-07 18:59 14.66772 -61.24477 4283 ft 242 kts 158°
2026-04-07 19:00 14.65182 -61.23929 3991 ft 239 kts 158°
2026-04-07 19:00 14.63608 -61.23382 3712 ft 239 kts 157°
2026-04-07 19:00 14.62037 -61.22836 3514 ft 237 kts 158°
2026-04-07 19:00 14.60469 -61.22292 3432 ft 232 kts 158°
2026-04-07 19:01 14.59014 -61.21778 3308 ft 210 kts 154°
2026-04-07 19:01 14.57777 -61.21091 3219 ft 199 kts 140°
2026-04-07 19:01 14.56304 -61.18833 3064 ft 190 kts 102°
2026-04-07 19:02 14.56183 -61.17491 2967 ft 185 kts 85°
2026-04-07 19:02 14.56397 -61.16223 2773 ft 175 kts 81°
2026-04-07 19:02 14.56606 -61.15002 2517 ft 170 kts 83°
2026-04-07 19:02 14.56798 -61.13824 2286 ft 163 kts 81°
2026-04-07 19:03 14.56990 -61.12712 2076 ft 151 kts 82°
2026-04-07 19:03 14.57172 -61.11651 1888 ft 149 kts 84°
2026-04-07 19:03 14.57345 -61.10627 1693 ft 144 kts 83°
2026-04-07 19:03 14.57508 -61.09669 1499 ft 137 kts 82°
2026-04-07 19:04 14.57673 -61.08715 1346 ft 135 kts 84°
2026-04-07 19:04 14.57831 -61.07788 1170 ft 128 kts 85°
2026-04-07 19:04 14.57982 -61.06889 1010 ft 127 kts 82°
2026-04-07 19:04 14.58139 -61.05984 844 ft 129 kts 81°
2026-04-07 19:05 14.58293 -61.05077 680 ft 129 kts 82°
2026-04-07 19:05 14.58446 -61.04181 512 ft 126 kts 78°
2026-04-07 19:05 14.58598 -61.03292 334 ft 124 kts 79°
2026-04-07 19:05 14.58747 -61.02422 182 ft 125 kts 82°
2026-04-07 19:06 14.58902 -61.01524 43 ft 128 kts 82°
2026-04-07 19:06 14.59042 -61.00688 23 ft 98 kts 80°
2026-04-07 19:06 14.59122 -61.00220 25 ft 36 kts 80°
2026-04-07 19:06 14.59148 -61.00070 25 ft 9 kts 80°
2026-04-07 19:07 14.59176 -61.00022 27 ft 8 kts 26°
2026-04-07 19:07 14.59224 -61.00021 27 ft 9 kts 352°
2026-04-07 19:07 14.59278 -61.00030 29 ft 11 kts 350°
2026-04-07 19:07 14.59334 -61.00040 29 ft 13 kts 350°
2026-04-07 19:08 14.59366 -61.00057 30 ft 1 kts 315°
2026-04-07 19:08 14.59378 -61.00083 30 ft 7 kts 292°
2026-04-07 19:08 14.59399 -61.00125 28 ft 2 kts 306°
2026-04-07 19:08 14.59416 -61.00133 28 ft 2 kts 355°
2026-04-07 19:09 14.59439 -61.00123 31 ft 5 kts 27°
2026-04-07 19:09 14.59472 -61.00102 26 ft 5 kts 32°
2026-04-07 19:09 14.59483 -61.00095 26 ft 1 kts 33°
2026-04-07 19:09 14.59484 -61.00094 26 ft 0 kts 33°